Home   Weather   Podgorica   Past weeks

Flag for Montenegro Past Weather in Podgorica, Montenegro — Yesterday and Last 2 Weeks

63 °F

Mostly cloudy.

Feels Like: 63 °F
Forecast: 54 / 68 °F
Wind: 2 mph from North

Location: Podgorica Titograd

Current Time: Oct 21, 2016 at 8:30:31 PM

Latest Report: Oct 21, 2016 at 8:00 PM

Visibility: N/A

Pressure: 29.89 "Hg

Humidity: 94%

Dew Point: 61 °F

Location of PodgoricaLocation

Past Weather in Podgorica — Graph


Podgorica Temperature Yesterday

Maximum temperature yesterday: 68 °F (at 4:00 PM)
Minimum temperature yesterday: 55 °F (at 7:30 AM)
Average temperature yesterday: 61 °F

High & Low Weather Summary for the Past Weeks

High77 °F (Oct 14, 3:00 PM)100% (Oct 7, 12:00 AM)32.55 "Hg (Oct 7, 12:00 AM)
Low48 °F (Oct 13, 2:30 AM)22% (Oct 14, 2:00 PM)29.65 "Hg (Oct 12, 2:30 AM)
Average59 °F83%30.02 "Hg
* Reported Oct 6 7:00 PM — Oct 21 7:30 PM, Podgorica, Weather by CustomWeather, © 2016

Note: Actual official high and low records may vary slightly from our data, if they occured in-between our weather recording intervals... More about our weather records


Podgorica Weather History for the Previous 24 Hours

Scroll right to see more
Time TempWeatherWind HumidityBarometerVisibility
7:30 PM
Fri, Oct 21
63 °FPartly cloudy.1 mph94%29.89 "HgN/A
7:00 PM64 °FPartly cloudy.3 mph88%29.89 "HgN/A
6:30 PM64 °FPartly cloudy.2 mph83%29.89 "HgN/A
6:00 PM64 °FLight rain. Partly cloudy.2 mph83%29.89 "HgN/A
5:30 PM66 °FLight rain. Broken clouds.7 mph83%29.89 "HgN/A
5:00 PM68 °FBroken clouds.5 mph73%29.89 "HgN/A
4:30 PM68 °FBroken clouds.6 mph73%29.89 "HgN/A
4:00 PM70 °FPartly sunny.6 mph73%29.89 "HgN/A
3:30 PM70 °FPartly sunny.2 mph73%29.89 "HgN/A
3:00 PM70 °FScattered clouds.3 mph73%29.89 "HgN/A
2:30 PM70 °FScattered clouds.2 mph69%29.89 "HgN/A
2:00 PM68 °FScattered clouds.2 mph73%29.89 "HgN/A
1:30 PM64 °FScattered clouds.5 mph88%29.89 "HgN/A
1:00 PM68 °FScattered clouds.2 mph73%29.92 "HgN/A
12:30 PM66 °FScattered clouds.No wind78%29.92 "HgN/A
12:00 PM63 °FScattered clouds.6 mph88%29.92 "HgN/A
11:30 AM61 °FScattered clouds.6 mph100%29.92 "HgN/A
11:00 AM59 °FLight rain. Broken clouds.2 mph100%29.92 "Hg4 mi
10:30 AM59 °FLight rain. Broken clouds.3 mph100%29.92 "Hg4 mi
10:00 AM59 °FLight rain. Fog.1 mph100%29.92 "Hg3 mi
9:30 AM59 °FLight rain. Fog.2 mph100%29.92 "Hg3 mi
9:00 AM59 °FRain. Fog.2 mph100%29.92 "Hg1 mi
8:30 AM59 °FRain. More clouds than sun.2 mph100%29.89 "Hg4 mi
8:00 AM59 °FLight rain. More clouds than sun.2 mph100%29.89 "Hg5 mi
7:30 AM59 °FLight rain. More clouds than sun.2 mph100%29.89 "Hg5 mi
7:00 AM59 °FLight rain. Mostly cloudy.1 mph100%29.89 "Hg4 mi
6:30 AM59 °FLight rain. Mostly cloudy.1 mph100%29.89 "HgN/A
6:00 AM59 °FLight rain. Mostly cloudy.2 mph100%29.89 "HgN/A
5:30 AM59 °FLight rain. Mostly cloudy.2 mph100%29.89 "HgN/A
5:00 AM59 °FLight rain. Mostly cloudy.3 mph100%29.89 "Hg5 mi
4:30 AM59 °FLight rain. Mostly cloudy.5 mph100%29.92 "Hg5 mi
4:00 AM59 °FLight rain. Mostly cloudy.5 mph100%29.92 "Hg5 mi
3:30 AM59 °FLight rain. Fog.1 mph100%29.92 "Hg3 mi
3:00 AM59 °FLight rain. Mostly cloudy.1 mph100%29.92 "Hg4 mi
2:30 AM59 °FPartly cloudy.2 mph100%29.92 "Hg4 mi
2:00 AM59 °FPartly cloudy.3 mph100%29.95 "HgN/A
1:30 AM59 °FPartly cloudy.2 mph100%29.95 "HgN/A
1:00 AM59 °FPartly cloudy.2 mph100%29.95 "HgN/A
12:30 AM59 °FMostly cloudy.2 mph100%29.95 "HgN/A
12:00 AM59 °FLight rain. Mostly cloudy.2 mph100%29.95 "HgN/A
11:30 PM
Thu, Oct 20
59 °FPartly cloudy.5 mph100%29.98 "HgN/A
11:00 PM61 °FMostly cloudy.2 mph94%29.98 "HgN/A
10:30 PM61 °FMostly cloudy.5 mph94%29.98 "HgN/A
10:00 PM61 °FLight rain. Mostly cloudy.7 mph94%29.98 "HgN/A
9:30 PM61 °FLight rain. Mostly cloudy.5 mph94%29.98 "HgN/A
9:00 PM61 °FRain. Mostly cloudy.3 mph94%29.98 "Hg5 mi
8:30 PM61 °FLight rain. Mostly cloudy.3 mph94%29.98 "HgN/A
8:00 PM61 °FLight rain. Mostly cloudy.5 mph88%29.98 "HgN/A
Weather by CustomWeather, © 2016

See weather overviewHow to use our weather pages